Inquirer Daily News

Weather

Get conditions and forecasts for any City, State, ZIP code or Country:  
Trenton, NJ
on Sunday, January 13, 2013

Sunday
Previous Day Next Day
Daily Summary
 ActualAverageRecord
Temperature
Mean Temperature °F 31°F  
Max Temperature 49°F 39°F 70°F (1890)
Min Temperature 43°F 23°F -8°F (1912)
Degree Days
Heating Degree Days 19 34  
Month to date heating degree days 359 441  
Since 1 July heating degree days 2117 2336  
Cooling Degree Days 0 0  
Month to date cooling degree days 0 0  
Year to date cooling degree days 0 0  
Moisture
Dew Point 45°F   
Average Humidity 96    
Maximum Humidity 100    
Minimum Humidity 92    
Precipitation
Precipitation 0.03 in 0.10 in 1.06 in (1915)
Month to date precipitation 0.65 1.43  
Year to date precipitation 0.65 1.43  
Wind
Wind Speed 3 mph   
Max Wind Speed 7 mph   
Max Gust Speed 9 mph   
Visibility 1 miles   
Events Fog   

Key: T is trace of precipitation, MM is missing value
Source: NWS Daily Summary
Time(EST)TemperatureDew PointHumidity Pressure Visibility Wind DirectionWind SpeedGust SpeedPrecipitationEvents Conditions
12:53 AM 43.0°F 42.1°F 97% 30.13 in 0.5 miles Calm Calm - N/A Fog Fog
1:53 AM 43.0°F 42.1°F 97% 30.11 in 0.2 miles East 3.5 mph - N/A Fog Fog
2:53 AM 43.0°F 42.1°F 97% 30.13 in 0.2 miles NNW 3.5 mph - 0.01 in Fog Fog
4:53 AM 43.0°F 41.0°F 93% 30.09 in 0.2 miles SE 3.5 mph - N/A Fog Fog
5:53 AM 44.1°F 43.0°F 96% 30.09 in 0.2 miles South 4.6 mph - N/A Fog Fog
7:53 AM 44.1°F 43.0°F 96% 30.11 in 0.2 miles South 4.6 mph - N/A Fog Fog
8:53 AM 44.1°F 43.0°F 96% 30.12 in 0.2 miles South 4.6 mph - N/A Fog Fog
9:53 AM 44.1°F 43.0°F 96% 30.12 in 0.2 miles South 5.8 mph - N/A Fog Fog
10:53 AM 44.1°F 44.1°F 100% 30.12 in 0.2 miles SSE 5.8 mph - N/A Fog Fog
11:53 AM 45.0°F 44.1°F 97% 30.10 in 0.2 miles South 6.9 mph - N/A Fog Fog
12:35 PM 44.6°F 44.6°F 100% 30.09 in 1.0 miles SSW 5.8 mph - N/A   Overcast
12:53 PM 46.0°F 45.0°F 96% 30.07 in 1.8 miles South 4.6 mph - N/A   Overcast
1:08 PM 46.4°F 44.6°F 93% 30.08 in 2.0 miles SSW 3.5 mph - N/A   Overcast
1:32 PM 46.4°F 44.6°F 93% 30.06 in 3.0 miles South 4.6 mph - N/A   Overcast
1:42 PM 46.4°F 44.6°F 93% 30.06 in 2.5 miles South 5.8 mph - N/A   Overcast
1:53 PM 46.9°F 46.0°F 97% 30.05 in 2.0 miles South 3.5 mph - N/A   Overcast
2:53 PM 46.9°F 46.0°F 97% 30.05 in 1.5 miles Calm Calm - N/A   Overcast
3:53 PM 48.0°F 46.9°F 96% 30.05 in 1.2 miles SSW 3.5 mph - N/A   Overcast
4:12 PM 48.2°F 46.4°F 93% 30.04 in 0.8 miles South 4.6 mph - N/A   Overcast
4:53 PM 48.0°F 46.9°F 96% 30.04 in 0.2 miles Calm Calm - N/A Fog Fog
5:53 PM 48.0°F 46.9°F 96% 30.03 in 0.2 miles Calm Calm - 0.01 in Fog Fog
6:53 PM 48.0°F 46.9°F 96% 30.02 in 0.2 miles Calm Calm - N/A Fog Fog
7:53 PM 48.0°F 48.0°F 100% 30.01 in 0.5 miles Calm Calm - N/A Fog Fog
8:53 PM 48.0°F 46.9°F 96% 29.99 in 0.2 miles SE 3.5 mph - 0.01 in Fog Fog
9:53 PM 48.0°F 46.9°F 96% 30.00 in 0.2 miles North 3.5 mph - N/A Fog Fog
10:53 PM 48.0°F 46.9°F 96% 29.99 in 0.5 miles SE 3.5 mph - 0.01 in Fog Fog
11:53 PM 48.0°F 46.9°F 96% 29.99 in 0.2 miles SE 4.6 mph - N/A Fog Fog
Astronomy
Sunrise:07:20 AM (EST) Moon Rise:08:17 AM (EST)1/13
Sunset:04:55 PM (EST) Moon Set:07:31 PM (EST)1/13
Moon Phase
Jan. 13 Jan. 18 Jan. 26 Feb. 03 Feb. 10

Copyright © 2014 The Weather Underground, Inc.